FW5890 Weather Reports


Display with metric or nautical units.
time (UTC)temp
F
wind
direction
speed
MPH
gust
MPH
rain 1hr
in
rain 24hr
in
rain mn
in
humidity
%
barometer
mb
20260506232014 45 360 3.0 8.0 0.00 0.00 0.00 52 1016.4
20260506231540 45 269 1.0 4.0 0.00 0.00 0.00 52 1016.4
20260506231018 46 96 1.0 5.0 0.00 0.00 0.00 53 1016.4
20260506230556 45 113 2.0 9.0 0.00 0.00 0.00 52 1016.4
20260506230023 46 315 2.0 12.0 0.00 0.00 0.00 52 1016.3
20260506225609 46 315 4.0 12.0 0.00 0.00 0.00 52 1016.4
20260506225037 46 303 3.0 9.0 0.00 0.00 0.00 53 1016.4
20260506224559 46 52 2.0 8.0 0.00 0.00 0.00 53 1016.4
20260506224008 46 325 1.0 6.0 0.00 0.00 0.00 52 1016.4
20260506223526 46 190 1.0 6.0 0.00 0.00 0.00 51 1016.4
20260506223047 46 213 1.0 6.0 0.00 0.00 0.00 52 1016.4
20260506222521 46 274 1.0 13.0 0.00 0.00 0.00 52 1016.4
20260506222041 46 313 4.0 13.0 0.00 0.00 0.00 51 1016.4
20260506221514 46 242 1.0 5.0 0.00 0.00 0.00 52 1016.4
20260506221055 46 123 0.0 9.0 0.00 0.00 0.00 55 1016.4
20260506220506 46 331 2.0 9.0 0.00 0.00 0.00 52 1016.5
20260506220051 46 298 2.0 6.0 0.00 0.00 0.00 54 1016.5
20260506215612 45 323 2.0 8.0 0.00 0.00 0.00 52 1016.5
20260506215019 46 313 2.0 8.0 0.00 0.00 0.00 53 1016.6
20260506214603 46 61 2.0 6.0 0.00 0.00 0.00 53 1016.7
20260506214031 46 329 3.0 6.0 0.00 0.00 0.00 54 1016.7
20260506213551 45 317 2.0 8.0 0.00 0.00 0.00 54 1016.7
20260506213000 45 323 3.0 6.0 0.00 0.00 0.00 54 1016.8
20260506212549 45 57 2.0 8.0 0.00 0.00 0.00 55 1016.9
20260506212105 44 355 3.0 9.0 0.00 0.00 0.00 54 1016.9
20260506211514 45 325 2.0 9.0 0.00 0.00 0.00 53 1016.8
20260506211059 45 36 2.0 6.0 0.00 0.00 0.00 53 1016.9
20260506210618 45 355 2.0 11.0 0.00 0.00 0.00 55 1016.9
20260506210029 45 346 3.0 11.0 0.00 0.00 0.00 55 1017.0
20260506205503 44 286 2.0 6.0 0.00 0.00 0.00 56 1017.1
20260506205023 44 327 1.0 10.0 0.00 0.00 0.00 57 1017.2
20260506204543 44 287 2.0 13.0 0.00 0.00 0.00 56 1017.2
20260506204008 44 22 3.0 13.0 0.00 0.00 0.00 54 1017.2
20260506203551 45 348 2.0 6.0 0.00 0.00 0.00 57 1017.2
20260506203011 45 314 2.0 9.0 0.00 0.00 0.00 55 1017.2
20260506202531 44 195 1.0 9.0 0.00 0.00 0.00 57 1017.2
20260506202005 44 338 3.0 11.0 0.00 0.00 0.00 57 1017.3
20260506201539 44 300 3.0 11.0 0.00 0.00 0.00 56 1017.3
20260506201046 44 345 1.0 6.0 0.00 0.00 0.00 60 1017.2
20260506200524 43 360 1.0 9.0 0.00 0.00 0.00 59 1017.3
20260506195513 43 360 3.0 9.0 0.00 0.00 0.00 59 1017.3
20260506195035 43 360 2.0 9.0 0.00 0.00 0.00 58 1017.3
20260506194555 43 360 2.0 9.0 0.00 0.00 0.00 58 1017.3
20260506194003 43 360 4.0 9.0 0.00 0.00 0.00 57 1017.3
20260506193549 43 329 2.0 8.0 0.00 0.00 0.00 57 1017.4
20260506193027 44 360 2.0 8.0 0.00 0.00 0.00 58 1017.4
20260506192605 43 360 2.0 5.0 0.00 0.00 0.00 57 1017.4
20260506192017 43 360 2.0 13.0 0.00 0.00 0.00 58 1017.4
20260506191538 43 360 5.0 13.0 0.00 0.00 0.00 57 1017.4
20260506191055 43 360 5.0 10.0 0.00 0.00 0.00 57 1017.4
20260506190505 43 360 3.0 11.0 0.00 0.00 0.00 58 1017.4
20260506190048 43 360 3.0 11.0 0.00 0.00 0.00 57 1017.3
20260506185610 43 360 5.0 10.0 0.00 0.00 0.00 57 1017.3
20260506185038 43 360 4.0 10.0 0.00 0.00 0.00 58 1017.4
20260506184602 43 360 3.0 10.0 0.00 0.00 0.00 57 1017.3
20260506184055 43 360 4.0 10.0 0.00 0.00 0.00 57 1017.3
20260506183539 43 360 1.0 9.0 0.00 0.00 0.00 57 1017.4
20260506183006 43 360 2.0 9.0 0.00 0.00 0.00 57 1017.4
20260506182534 42 360 2.0 9.0 0.00 0.00 0.00 57 1017.4
20260506182100 42 360 4.0 11.0 0.00 0.00 0.00 57 1017.4
20260506181535 42 360 2.0 11.0 0.00 0.00 0.00 57 1017.4
20260506181003 42 360 2.0 5.0 0.00 0.00 0.00 60 1017.6
20260506180525 42 360 2.0 11.0 0.00 0.00 0.00 58 1017.5
20260506180043 42 360 3.0 11.0 0.00 0.00 0.00 58 1017.5
20260506175518 42 336 2.0 9.0 0.00 0.00 0.00 58 1017.5
20260506175036 42 267 2.0 9.0 0.00 0.00 0.00 57 1017.5
20260506174557 43 332 3.0 9.0 0.00 0.00 0.00 56 1017.6
20260506174033 43 344 3.0 8.0 0.00 0.00 0.00 59 1017.6
20260506173549 42 360 2.0 9.0 0.00 0.00 0.00 60 1017.6
20260506173136 41 360 3.0 11.0 0.00 0.00 0.00 58 1017.7
20260506172532 41 360 3.0 8.0 0.00 0.00 0.00 58 1017.7
20260506172101 41 360 2.0 10.0 0.00 0.00 0.00 60 1017.8
20260506171626 41 360 3.0 10.0 0.00 0.00 0.00 59 1017.8
20260506171035 41 360 1.0 9.0 0.00 0.00 0.00 59 1017.7
20260506170602 41 360 1.0 5.0 0.00 0.00 0.00 60 1017.8
20260506170013 41 360 3.0 9.0 0.00 0.00 0.00 58 1017.8
20260506165533 41 360 4.0 8.0 0.00 0.00 0.00 59 1017.9
20260506165056 40 360 0.0 6.0 0.00 0.00 0.00 60 1017.8
20260506164511 40 360 1.0 8.0 0.00 0.00 0.00 59 1017.9
20260506164048 40 360 2.0 9.0 0.00 0.00 0.00 60 1017.9
20260506163520 40 360 2.0 10.0 0.00 0.00 0.00 59 1017.9
20260506163003 40 360 2.0 10.0 0.00 0.00 0.00 59 1018.0
20260506162549 40 360 3.0 8.0 0.00 0.00 0.00 60 1017.9
20260506162044 41 360 2.0 8.0 0.00 0.00 0.00 59 1017.9
20260506161500 40 360 2.0 12.0 0.00 0.00 0.00 60 1017.8
20260506161048 40 360 2.0 12.0 0.00 0.00 0.00 60 1017.8
20260506160539 40 360 2.0 8.0 0.00 0.00 0.00 59 1017.7
20260506160103 40 360 2.0 8.0 0.00 0.00 0.00 59 1017.8
20260506155517 40 360 1.0 4.0 0.00 0.00 0.00 61 1017.8
20260506155045 40 360 1.0 4.0 0.00 0.00 0.00 60 1017.7
20260506154530 40 360 0.0 6.0 0.00 0.00 0.00 61 1017.7
20260506154107 40 360 2.0 6.0 0.00 0.00 0.00 61 1017.7
20260506153523 40 360 1.0 9.0 0.00 0.00 0.00 61 1017.6
20260506153007 40 360 1.0 9.0 0.00 0.00 0.00 61 1017.6
20260506152603 40 360 3.0 6.0 0.00 0.00 0.00 60 1017.6
20260506152013 40 360 1.0 8.0 0.00 0.00 0.00 61 1017.7
20260506151533 40 360 1.0 8.0 0.00 0.00 0.00 62 1017.6
20260506151100 40 360 1.0 4.0 0.00 0.00 0.00 61 1017.6
20260506150536 40 360 1.0 4.0 0.00 0.00 0.00 62 1017.6
20260506150017 39 360 1.0 3.0 0.00 0.00 0.00 61 1017.7
20260506145544 39 360 1.0 4.0 0.00 0.00 0.00 62 1017.7
20260506145108 39 360 1.0 5.0 0.00 0.00 0.00 62 1017.7
20260506144545 39 360 1.0 5.0 0.00 0.00 0.00 62 1017.7
20260506144023 39 360 1.0 5.0 0.00 0.00 0.00 62 1017.7
20260506143519 39 360 2.0 5.0 0.00 0.00 0.00 62 1017.7
20260506143104 38 360 0.0 6.0 0.00 0.00 0.00 62 1017.7
20260506142540 38 360 2.0 6.0 0.00 0.00 0.00 62 1017.7
20260506142107 38 360 1.0 6.0 0.00 0.00 0.00 62 1017.6
20260506141521 38 360 2.0 8.0 0.00 0.00 0.00 61 1017.7
20260506141005 38 360 1.0 8.0 0.00 0.00 0.00 63 1017.7
20260506140546 38 360 0.0 4.0 0.00 0.00 0.00 62 1017.7
20260506140112 38 360 1.0 5.0 0.00 0.00 0.00 62 1017.6
20260506135516 38 360 2.0 5.0 0.00 0.00 0.00 62 1017.6
20260506135046 38 360 1.0 5.0 0.00 0.00 0.00 62 1017.5
20260506134610 38 360 1.0 5.0 0.00 0.00 0.00 63 1017.5
20260506134031 38 360 1.0 6.0 0.00 0.00 0.00 63 1017.5
20260506133503 38 360 1.0 6.0 0.00 0.00 0.00 63 1017.4
20260506133029 38 360 1.0 5.0 0.00 0.00 0.00 63 1017.5
20260506132503 38 360 1.0 6.0 0.00 0.00 0.00 66 1017.3
20260506132054 38 360 0.0 6.0 0.00 0.00 0.00 66 1017.3
20260506131532 38 360 1.0 6.0 0.00 0.00 0.00 67 1017.3
20260506131123 38 360 1.0 6.0 0.00 0.00 0.00 66 1017.2
20260506130518 38 360 0.0 5.0 0.00 0.00 0.00 67 1017.1
20260506130008 38 360 1.0 6.0 0.00 0.00 0.00 66 1017.0
20260506125527 38 360 1.0 6.0 0.00 0.00 0.00 67 1017.0
20260506125050 38 360 1.0 4.0 0.00 0.00 0.00 67 1017.0
20260506124546 38 360 0.0 5.0 0.00 0.00 0.00 67 1016.9
20260506124027 38 360 1.0 5.0 0.00 0.00 0.00 68 1016.8
20260506123606 38 360 1.0 6.0 0.00 0.00 0.00 67 1016.8
20260506123030 38 360 0.0 3.0 0.00 0.00 0.00 69 1016.8
20260506122524 38 360 1.0 3.0 0.00 0.00 0.00 69 1016.7
20260506122011 37 360 1.0 3.0 0.00 0.00 0.00 70 1016.6
20260506121603 37 360 0.0 4.0 0.00 0.00 0.00 71 1016.5
20260506121031 37 360 0.0 4.0 0.00 0.00 0.00 72 1016.4
20260506120612 36 360 0.0 3.0 0.00 0.00 0.00 73 1016.4
20260506120031 36 360 1.0 3.0 0.00 0.00 0.00 74 1016.3
20260506115518 35 360 0.0 3.0 0.00 0.00 0.00 75 1016.3
20260506115102 35 360 0.0 2.0 0.00 0.00 0.00 75 1016.2
20260506114511 34 360 0.0 3.0 0.00 0.00 0.00 76 1016.1
20260506114031 34 360 0.0 3.0 0.00 0.00 0.00 75 1016.0
20260506113552 34 360 0.0 2.0 0.00 0.00 0.00 76 1015.9
20260506113002 34 360 0.0 1.0 0.00 0.00 0.00 75 1015.8
20260506112522 33 360 0.0 2.0 0.00 0.00 0.00 75 1015.8
20260506112041 34 360 0.0 2.0 0.00 0.00 0.00 75 1015.7
20260506111601 34 360 0.0 1.0 0.00 0.00 0.00 75 1015.6
20260506111012 34 360 0.0 1.0 0.00 0.00 0.00 75 1015.6
20260506110549 34 360 0.0 2.0 0.00 0.00 0.00 75 1015.6
20260506110027 34 360 0.0 1.0 0.00 0.00 0.00 75 1015.8
20260506105549 34 360 0.0 1.0 0.00 0.00 0.00 75 1015.9
20260506105105 34 360 0.0 3.0 0.00 0.00 0.00 75 1016.0
20260506104516 34 360 0.0 3.0 0.00 0.00 0.00 75 1016.0
20260506104052 34 360 1.0 3.0 0.00 0.00 0.00 76 1016.0
20260506103502 34 360 0.0 4.0 0.00 0.00 0.00 76 1016.0
20260506103023 34 360 0.0 4.0 0.00 0.00 0.00 76 1016.0
20260506102544 33 360 1.0 4.0 0.00 0.00 0.00 76 1015.9
20260506102016 33 360 0.0 2.0 0.00 0.00 0.00 75 1015.8
20260506101537 33 360 0.0 2.0 0.00 0.00 0.00 75 1015.6
20260506101055 33 360 0.0 0.0 0.00 0.00 0.00 75 1015.6
20260506100506 33 360 0.0 1.0 0.00 0.00 0.00 75 1015.5
20260506100026 33 360 0.0 2.0 0.00 0.00 0.00 75 1015.5
20260506095546 33 360 0.0 2.0 0.00 0.00 0.00 75 1015.5
20260506095106 33 360 0.0 2.0 0.00 0.00 0.00 76 1015.5
20260506094521 33 360 0.0 0.0 0.00 0.00 0.00 75 1015.5
20260506094059 33 360 0.0 1.0 0.00 0.00 0.00 75 1015.5
20260506093511 33 360 0.0 1.0 0.00 0.00 0.00 75 1015.4
20260506093052 33 360 0.0 1.0 0.00 0.00 0.00 75 1015.4
20260506092701 33 360 0.0 0.0 0.00 0.00 0.00 74 1015.3
20260506092003 33 360 0.0 1.0 0.00 0.00 0.00 74 1015.3
20260506091546 33 360 0.0 1.0 0.00 0.00 0.00 74 1015.4
20260506091102 33 360 0.0 0.0 0.00 0.00 0.00 73 1015.4
20260506090536 33 360 0.0 0.0 0.00 0.00 0.00 72 1015.5
20260506090001 33 360 0.0 0.0 0.00 0.00 0.00 72 1015.5
20260506085545 33 360 0.0 0.0 0.00 0.00 0.00 71 1015.5
20260506085004 33 360 0.0 0.0 0.00 0.00 0.00 71 1015.3
20260506084524 33 360 0.0 0.0 0.00 0.00 0.00 71 1015.2
20260506084045 33 360 0.0 0.0 0.00 0.00 0.00 71 1015.1
20260506083605 33 360 0.0 0.0 0.00 0.00 0.00 71 1015.0
20260506083026 34 360 0.0 0.0 0.00 0.00 0.00 72 1015.0
20260506082515 34 360 0.0 1.0 0.00 0.00 0.00 71 1015.0
20260506082054 34 360 0.0 1.0 0.00 0.00 0.00 70 1015.0
20260506081507 34 360 0.0 1.0 0.00 0.00 0.00 70 1015.0
20260506081031 34 360 0.0 2.0 0.00 0.00 0.00 70 1015.1
20260506080502 34 360 0.0 2.0 0.00 0.00 0.00 69 1015.2
20260506073020 35 360 0.0 1.0 0.00 0.00 0.00 67 1014.8
20260506072538 35 360 0.0 1.0 0.00 0.00 0.00 67 1014.8
20260506072058 35 360 0.0 2.0 0.00 0.00 0.00 66 1014.7
20260506071534 35 360 0.0 2.0 0.00 0.00 0.00 66 1014.7
20260506071007 35 360 0.0 2.0 0.00 0.00 0.00 66 1014.7
20260506070553 36 360 0.0 2.0 0.00 0.00 0.00 66 1014.6
20260506070158 36 360 0.0 2.0 0.00 0.00 0.00 66 1014.7
20260506062016 37 360 0.0 3.0 0.00 0.00 0.00 62 1014.6
20260506061555 37 360 0.0 3.0 0.00 0.00 0.00 62 1014.6
20260506061010 37 360 0.0 3.0 0.00 0.00 0.00 62 1014.7
20260506060530 38 360 0.0 3.0 0.00 0.00 0.00 62 1014.7
20260506060105 38 360 0.0 3.0 0.00 0.00 0.00 62 1014.7
20260506051029 39 360 0.0 2.0 0.00 0.00 0.00 62 1014.3
20260506050506 39 360 0.0 2.0 0.00 0.00 0.00 61 1014.1
20260506045035 39 360 0.0 2.0 0.00 0.00 0.00 59 1014.0
20260506044506 39 360 0.0 5.0 0.00 0.00 0.00 60 1014.0
20260506044018 40 360 0.0 5.0 0.00 0.00 0.00 60 1014.1
20260506043539 40 360 0.0 3.0 0.00 0.00 0.00 60 1014.0
20260506043004 40 360 0.0 3.0 0.00 0.00 0.00 61 1014.0
20260506042538 40 360 0.0 2.0 0.00 0.00 0.00 60 1014.0
20260506042034 40 360 0.0 5.0 0.00 0.00 0.00 60 1014.0
20260506041509 40 360 0.0 5.0 0.00 0.00 0.00 59 1014.0
20260506041058 41 360 0.0 3.0 0.00 0.00 0.00 60 1013.9
20260506040534 41 360 0.0 5.0 0.00 0.00 0.00 59 1013.9
20260506040014 41 360 0.0 4.0 0.00 0.00 0.00 59 1013.9
20260506035536 41 360 1.0 4.0 0.00 0.00 0.00 60 1013.9
20260506035102 41 360 1.0 4.0 0.00 0.00 0.00 60 1013.9
20260506034539 41 360 0.0 6.0 0.00 0.00 0.00 60 1013.9
20260506034006 41 360 1.0 6.0 0.00 0.00 0.00 60 1013.7
20260506033550 41 360 0.0 2.0 0.00 0.00 0.00 60 1013.7
20260506033008 42 360 0.0 4.0 0.00 0.00 0.00 60 1013.7
20260506032536 42 360 0.0 4.0 0.00 0.00 0.00 59 1013.6
20260506032109 42 360 0.0 3.0 0.00 0.00 0.00 59 1013.6
20260506031549 42 360 0.0 2.0 0.00 0.00 0.00 59 1013.6
20260506031038 42 360 0.0 2.0 0.00 0.00 0.00 58 1013.6
20260506030506 43 360 0.0 4.0 0.00 0.00 0.00 57 1013.5
20260506030036 43 360 0.0 4.0 0.00 0.00 0.00 57 1013.6
20260506025513 43 360 0.0 4.0 0.00 0.00 0.00 56 1013.5
20260506025058 43 360 0.0 3.0 0.00 0.00 0.00 56 1013.4
20260506024537 43 360 0.0 6.0 0.00 0.00 0.00 55 1013.3
20260506024024 43 360 1.0 6.0 0.00 0.00 0.00 55 1013.2
20260506023501 43 360 1.0 5.0 0.00 0.00 0.00 55 1013.1
20260506023031 43 360 1.0 4.0 0.00 0.00 0.00 54 1012.9
20260506022506 43 360 1.0 4.0 0.00 0.00 0.00 53 1012.9
20260506022030 44 360 1.0 4.0 0.00 0.00 0.00 53 1012.9
20260506021517 44 360 1.0 3.0 0.00 0.00 0.00 53 1012.8
20260506021101 44 360 1.0 3.0 0.00 0.00 0.00 53 1012.8
20260506020538 44 360 0.0 3.0 0.00 0.00 0.00 53 1012.7
20260506020016 44 360 0.0 3.0 0.00 0.00 0.00 53 1012.5
20260506015502 44 360 1.0 3.0 0.00 0.00 0.00 52 1012.4
20260506015035 44 360 0.0 3.0 0.00 0.00 0.00 51 1012.3
20260506014557 45 360 0.0 3.0 0.00 0.00 0.00 52 1012.3
20260506014031 45 360 1.0 3.0 0.00 0.00 0.00 52 1012.3
20260506013518 45 360 0.0 4.0 0.00 0.00 0.00 50 1012.2
20260506013008 45 360 1.0 6.0 0.00 0.00 0.00 49 1012.1
20260506012549 46 360 1.0 9.0 0.00 0.00 0.00 49 1012.1
20260506012031 46 360 3.0 9.0 0.00 0.00 0.00 49 1012.0
20260506011526 46 360 2.0 9.0 0.00 0.00 0.00 49 1011.9
20260506011042 46 360 2.0 9.0 0.00 0.00 0.00 48 1011.8
20260506010505 47 360 1.0 6.0 0.00 0.00 0.00 49 1011.8
20260506010103 47 360 2.0 8.0 0.00 0.00 0.00 48 1011.7
20260506005516 47 360 0.0 6.0 0.00 0.00 0.00 48 1011.7
20260506005052 47 360 2.0 6.0 0.00 0.00 0.00 48 1011.7
20260506004526 47 360 1.0 9.0 0.00 0.00 0.00 48 1011.7
20260506004101 47 360 2.0 9.0 0.00 0.00 0.00 49 1011.7
20260506004001 47 360 2.0 9.0 0.00 0.00 0.00 49 1011.7
20260506003534 47 360 2.0 6.0 0.00 0.00 0.00 49 1011.6
20260506003105 47 360 2.0 4.0 0.00 0.00 0.00 49 1011.6
20260506002537 48 360 1.0 8.0 0.00 0.00 0.00 48 1011.5
20260506002010 48 360 2.0 8.0 0.00 0.00 0.00 48 1011.4
20260506001502 48 360 2.0 11.0 0.00 0.00 0.00 47 1011.3
20260506001049 48 360 1.0 11.0 0.00 0.00 0.00 47 1011.3
20260506000609 48 360 3.0 10.0 0.00 0.00 0.00 47 1011.2
20260506000031 48 360 2.0 5.0 0.00 0.00 0.00 47 1011.3
20260505235554 48 360 2.0 8.0 0.00 0.00 0.00 46 1011.3
20260505235014 49 360 2.0 8.0 0.00 0.00 0.00 45 1011.2
20260505234601 49 321 3.0 10.0 0.00 0.00 0.00 45 1011.1
20260505234004 49 311 3.0 10.0 0.00 0.00 0.00 44 1011.1
20260505233525 49 313 2.0 5.0 0.00 0.00 0.00 45 1011.0
20260505233106 49 292 2.0 9.0 0.00 0.00 0.00 47 1011.0
20260505232542 49 311 4.0 9.0 0.00 0.00 0.00 47 1011.0